Weather History for Charles City, IA

Change the Weather History Date:

Wednesday, August 7, 2013

  Actual Average Record
Temperature  
Mean Temperature 67 °F -  
Max Temperature 75 °F 83 °F 97 °F (1988)
Min Temperature 59 °F 59 °F 45 °F (1989)
Cooling Degree Days 2    
Growing Degree Days 17 (Base 50)    
Moisture  
Dew Point 61 °F    
Average Humidity 77    
Maximum Humidity 94    
Minimum Humidity 57    
Precipitation  
Precipitation 0.00 in - - ()
Sea Level Pressure  
Sea Level Pressure 29.93 in    
Wind  
Wind Speed 9 mph (NNW)    
Max Wind Speed 18 mph    
Max Gust Speed 21 mph    
Visibility 10 miles    
Events      
Averages and records for this station are not official NWS values.
T = Trace of Precipitation, MM = Missing Value Source: NWS Daily Summary

Daily Weather History Graph

Daily Weather History Graph

Search for Another Location

Airport:

Trip Planner

Search our weather history database for the weather conditions in past years. The results will help you decide how hot, cold, wet, or windy it might be!

Date:

Astronomy

Aug. 07, 2013 Rise Set
Actual Time 6:07 AM CDT 8:23 PM CDT
Civil Twilight 5:36 AM CDT 8:55 PM CDT
Nautical Twilight 4:57 AM CDT 9:34 PM CDT
Astronomical Twilight 4:13 AM CDT 10:17 PM CDT
Moon 6:59 AM CDT (8/7) 8:27 PM CDT (8/7)
Length of Visible Light 15h 19m
Length of Day
14h 16m
New Moon, 1% of the Moon is Illuminated
Aug 7
New Moon
Aug 14
First Quarter
Aug 20
Full
Aug 28
Last Quarter
Sep 5
New

Hourly Weather History & Observations

Time (CDT) Temp. Dew Point Humidity Pressure Visibility Wind Dir Wind Speed Gust Speed Precip Events Conditions
12:15 AM 73.4 °F 68.0 °F 83% 29.83 in 10.0 mi SW 6.9 mph - N/A   Partly Cloudy
12:35 AM 73.4 °F 68.0 °F 83% 29.83 in 10.0 mi SW 8.1 mph - N/A   Mostly Cloudy
12:55 AM 71.6 °F 68.0 °F 88% 29.82 in 10.0 mi SW 6.9 mph - N/A   Mostly Cloudy
1:15 AM 73.4 °F 68.0 °F 83% 29.82 in 10.0 mi SW 9.2 mph - N/A   Mostly Cloudy
1:35 AM 73.4 °F 68.0 °F 83% 29.82 in 10.0 mi SW 6.9 mph - N/A   Overcast
1:55 AM 71.6 °F 68.0 °F 88% 29.82 in 10.0 mi SW 5.8 mph - N/A   Mostly Cloudy
2:15 AM 71.6 °F 68.0 °F 88% 29.83 in 10.0 mi Calm Calm - N/A   Mostly Cloudy
2:35 AM 71.6 °F 68.0 °F 88% 29.83 in 10.0 mi West 4.6 mph - N/A   Mostly Cloudy
2:55 AM 69.8 °F 66.2 °F 88% 29.82 in 10.0 mi WSW 5.8 mph - N/A   Scattered Clouds
3:15 AM 69.8 °F 66.2 °F 88% 29.82 in 10.0 mi WSW 5.8 mph - N/A   Scattered Clouds
3:35 AM 68.0 °F 66.2 °F 94% 29.82 in 10.0 mi West 5.8 mph - N/A   Scattered Clouds
3:55 AM 68.0 °F 66.2 °F 94% 29.82 in 10.0 mi West 6.9 mph - N/A   Partly Cloudy
4:15 AM 68.0 °F 66.2 °F 94% 29.82 in 10.0 mi WNW 6.9 mph - N/A   Clear
4:35 AM 68.0 °F 64.4 °F 88% 29.83 in 10.0 mi NW 8.1 mph - N/A   Clear
4:55 AM 68.0 °F 62.6 °F 83% 29.83 in 10.0 mi NW 6.9 mph - N/A   Clear
5:15 AM 66.2 °F 60.8 °F 83% 29.83 in 10.0 mi NW 8.1 mph - N/A   Clear
5:35 AM 64.4 °F 60.8 °F 88% 29.83 in 10.0 mi NW 6.9 mph - N/A   Clear
5:55 AM 64.4 °F 59.0 °F 83% 29.84 in 10.0 mi NNW 9.2 mph - N/A   Clear
6:15 AM 62.6 °F 59.0 °F 88% 29.84 in 10.0 mi NW 6.9 mph - N/A   Clear
6:35 AM 62.6 °F 59.0 °F 88% 29.85 in 10.0 mi NW 8.1 mph - N/A   Clear
6:55 AM 62.6 °F 59.0 °F 88% 29.87 in 10.0 mi NW 8.1 mph - N/A   Clear
7:15 AM 62.6 °F 60.8 °F 94% 29.87 in 10.0 mi NNW 10.4 mph - N/A   Clear
7:35 AM 64.4 °F 60.8 °F 88% 29.87 in 10.0 mi NNW 10.4 mph - N/A   Clear
7:55 AM 64.4 °F 60.8 °F 88% 29.88 in 10.0 mi NNW 12.7 mph - N/A   Clear
8:15 AM 64.4 °F 60.8 °F 88% 29.90 in 10.0 mi NW 10.4 mph 16.1 mph N/A   Partly Cloudy
8:35 AM 64.4 °F 60.8 °F 88% 29.91 in 10.0 mi NNW 12.7 mph - N/A   Mostly Cloudy
8:55 AM 64.4 °F 60.8 °F 88% 29.91 in 10.0 mi North 12.7 mph - N/A   Overcast
9:15 AM 64.4 °F 60.8 °F 88% 29.92 in 9.0 mi NNW 13.8 mph - N/A   Overcast
9:35 AM 64.4 °F 60.8 °F 88% 29.93 in 7.0 mi NNW 12.7 mph - N/A   Overcast
9:55 AM 64.4 °F 60.8 °F 88% 29.94 in 10.0 mi NNW 15.0 mph - N/A   Overcast
10:15 AM 66.2 °F 60.8 °F 83% 29.94 in 10.0 mi NNW 17.3 mph - N/A   Overcast
10:35 AM 66.2 °F 60.8 °F 83% 29.96 in 10.0 mi NNW 13.8 mph 20.7 mph N/A   Overcast
10:55 AM 66.2 °F 60.8 °F 83% 29.97 in - NNW 15.0 mph - N/A   Overcast
11:15 AM 68.0 °F 60.8 °F 78% 29.97 in 10.0 mi NNW 13.8 mph - N/A   Overcast
11:35 AM 68.0 °F 60.8 °F 78% 29.97 in 10.0 mi North 16.1 mph - N/A   Overcast
11:55 AM 68.0 °F 60.8 °F 78% 29.98 in 10.0 mi NNW 11.5 mph 19.6 mph N/A   Overcast
12:15 PM 68.0 °F 60.8 °F 78% 29.98 in 10.0 mi NNW 13.8 mph - N/A   Overcast
12:35 PM 69.8 °F 60.8 °F 73% 29.98 in 10.0 mi NNW 11.5 mph 18.4 mph N/A   Overcast
12:55 PM 71.6 °F 60.8 °F 69% 29.97 in 10.0 mi NNW 11.5 mph 18.4 mph N/A   Mostly Cloudy
1:15 PM 71.6 °F 60.8 °F 69% 29.97 in 10.0 mi NW 18.4 mph - N/A   Overcast
1:35 PM 71.6 °F 60.8 °F 69% 29.97 in 10.0 mi NNW 12.7 mph - N/A   Mostly Cloudy
1:55 PM 73.4 °F 60.8 °F 65% 29.97 in 10.0 mi NW 15.0 mph - N/A   Mostly Cloudy
2:15 PM 73.4 °F 60.8 °F 65% 29.97 in 10.0 mi NNW 12.7 mph - N/A   Mostly Cloudy
2:35 PM 73.4 °F 60.8 °F 65% 29.97 in 10.0 mi North 11.5 mph 18.4 mph N/A   Mostly Cloudy
2:55 PM 73.4 °F 59.0 °F 61% 29.97 in 10.0 mi North 9.2 mph 17.3 mph N/A   Mostly Cloudy
3:15 PM 73.4 °F 59.0 °F 61% 29.96 in 10.0 mi NNW 11.5 mph 17.3 mph N/A   Partly Cloudy
3:35 PM 73.4 °F 59.0 °F 61% 29.96 in 10.0 mi NNW 11.5 mph 18.4 mph N/A   Partly Cloudy
3:55 PM 75.2 °F 59.0 °F 57% 29.96 in 10.0 mi North 12.7 mph - N/A   Partly Cloudy
4:15 PM 75.2 °F 59.0 °F 57% 29.96 in 10.0 mi North 11.5 mph - N/A   Clear
4:35 PM 75.2 °F 60.8 °F 61% 29.96 in 10.0 mi North 13.8 mph - N/A   Scattered Clouds
4:55 PM 75.2 °F 59.0 °F 57% 29.96 in 10.0 mi NNW 11.5 mph - N/A   Scattered Clouds
5:15 PM 75.2 °F 59.0 °F 57% 29.97 in 10.0 mi North 10.4 mph - N/A   Partly Cloudy
5:35 PM 75.2 °F 59.0 °F 57% 29.97 in 10.0 mi NNW 15.0 mph - N/A   Clear
5:55 PM 73.4 °F 57.2 °F 57% 29.97 in 10.0 mi NNW 13.8 mph - N/A   Clear
6:15 PM 73.4 °F 57.2 °F 57% 29.97 in 10.0 mi NNW 9.2 mph 15.0 mph N/A   Clear
6:35 PM 73.4 °F 57.2 °F 57% 29.97 in 10.0 mi North 10.4 mph - N/A   Clear
6:55 PM 73.4 °F 57.2 °F 57% 29.98 in 10.0 mi NNW 9.2 mph - N/A   Clear
7:15 PM 71.6 °F 59.0 °F 64% 29.98 in 10.0 mi North 6.9 mph - N/A   Clear
7:35 PM 69.8 °F 57.2 °F 64% 29.98 in 10.0 mi North 8.1 mph - N/A   Clear
7:55 PM 68.0 °F 57.2 °F 68% 29.98 in 10.0 mi North 6.9 mph - N/A   Clear
8:15 PM 68.0 °F 57.2 °F 68% 29.99 in - North 6.9 mph - N/A   Clear
8:35 PM 66.2 °F 55.4 °F 68% 29.99 in 10.0 mi North 6.9 mph - N/A   Clear
8:55 PM 64.4 °F 55.4 °F 73% 30.00 in 10.0 mi North 6.9 mph - N/A   Clear
9:15 PM 64.4 °F 55.4 °F 73% 30.01 in 10.0 mi North 5.8 mph - N/A   Clear
9:35 PM 64.4 °F 55.4 °F 73% 30.02 in 10.0 mi North 6.9 mph - N/A   Clear
9:55 PM 62.6 °F 55.4 °F 77% 30.03 in 10.0 mi North 5.8 mph - N/A   Clear
10:15 PM 62.6 °F 55.4 °F 77% 30.03 in 10.0 mi North 5.8 mph - N/A   Clear
10:35 PM 62.6 °F 55.4 °F 77% 30.04 in 10.0 mi North 4.6 mph - N/A   Clear
10:55 PM 60.8 °F 55.4 °F 82% 30.04 in 10.0 mi North 5.8 mph - N/A   Clear
11:15 PM 60.8 °F 55.4 °F 82% 30.04 in 10.0 mi North 5.8 mph - N/A   Clear
11:35 PM 59.0 °F 55.4 °F 88% 30.05 in 10.0 mi NNW 5.8 mph - N/A   Clear
11:55 PM 59.0 °F 55.4 °F 88% 30.05 in 10.0 mi NNW 5.8 mph - N/A   Clear